Weather in Kitskovo

Russia / Pskov Oblast     56°24′34″N   28°47′54″E
temp.,
°C
wind,
m/s
gust,
m/s
humid.,
%
clouds,
%
prec.,
mm/h
press.,
hPa
HPBL,
m
16 april, fri
fri1600:00+6ne5128595 1.0 1020584
03:00+5ne5138669 2.3 1020558
06:00+5ne51389100 0.0 1019474
09:00+5ne51488100 0.3 1019630
12:00+7ene51185100 0.1 1020674
15:00+10ene5107995 0.1 1021836
18:00+10ene51081100 0.0 1021877
21:00+9ene41385100 0.0 1022665
17 april, sat
sat1700:00+9ene5138398 0.0 1022648
03:00+7ene4128599 0.0 1022512
06:00+6ene41281100 0.0 1022490
09:00+8ene497799 0.0 1024506
12:00+12ene466540 0.0 1024873
15:00+13ene566197 0.0 10241281
18:00+12ne4872100 0.0 1024919
21:00+10ne397754 0.0 1024335
18 april, sun
sun1800:00+7ne398887 0.0 1025239
03:00+6ne39827 0.0 1025251
06:00+4ne39828 0.0 1025264
09:00+8ene49590 0.0 1025542
12:00+12ene57430 0.0 10241272
15:00+14ene56395 0.0 10241717
18:00+13ene46435 0.0 10241901
21:00+8ne386712 0.0 1025153
19 april, mon
mon1900:00+7ene267195 0.0 1026117
03:00+7ene2375100 0.0 102690
06:00+7ene257797 0.0 1026168
09:00+9e36605 0.0 1026450
12:00+13e46445 0.0 10261896
15:00+14e463888 0.0 10242357
18:00+12ene465398 0.0 10241440
21:00+9e396842 0.0 1025391
20 april, tue
tue2000:00+6e288197 0.0 1024277
03:00+7ene3875100 0.0 1023415
06:00+6ene3879100 0.0 1022499
09:00+7ene476791 0.0 1021752
12:00+9ene465298 0.0 10191674
15:00+10ne5747100 0.0 10171838
18:00+11ne584962 0.0 10141835
21:00+7ne41064100 0.0 1013563